This is the latest recevied weather packets stored in our database for station/object N9ALD. If no packets are shown the sender has not sent any weather packets the latest 10 day(s).
| Time | Temp. | Humidity | Pressure | Rain* | Wind** | Luminosity | Snow |
|---|---|---|---|---|---|---|---|
| 1776904703 | 22.22° C | 52% | 1011.3 hPa | 0 mm | - | 1 W/m² | - |
| 1776904401 | 22.78° C | 51% | 1011.4 hPa | 0 mm | - | 2 W/m² | - |
| 1776904098 | 22.78° C | 50% | 1011.3 hPa | 0 mm | - | 4 W/m² | - |
| 1776903793 | 23.33° C | 49% | 1011.4 hPa | 0 mm | - | 7 W/m² | - |
| 1776903489 | 23.33° C | 48% | 1011.1 hPa | 0 mm | - | 10 W/m² | - |
| 1776903185 | 23.89° C | 47% | 1011.2 hPa | 0 mm | - | 13 W/m² | - |
| 1776902882 | 23.89° C | 46% | 1011 hPa | 0 mm | - | 16 W/m² | - |
| 1776902580 | 24.44° C | 45% | 1011 hPa | 0 mm | - | 20 W/m² | - |
| 1776902276 | 24.44° C | 44% | 1011 hPa | 0 mm | - | 24 W/m² | - |
| 1776901971 | 25° C | 45% | 1011.2 hPa | 0 mm | - | 28 W/m² | - |
| 1776901668 | 25° C | 44% | 1011.2 hPa | 0 mm | - | 34 W/m² | - |
| 1776901364 | 25° C | 44% | 1011.2 hPa | 0 mm | - | 40 W/m² | - |
| 1776901062 | 25° C | 42% | 1011 hPa | 0 mm | - | 46 W/m² | - |
| 1776900759 | 25° C | 43% | 1011.1 hPa | 0 mm | - | 53 W/m² | - |
| 1776900458 | 25.56° C | 42% | 1011 hPa | 0 mm | - | 60 W/m² | - |
| 1776900156 | 25.56° C | 42% | 1011 hPa | 0 mm | - | 70 W/m² | - |
| 1776899852 | 25.56° C | 42% | 1010.9 hPa | 0 mm | - | 80 W/m² | - |
| 1776899550 | 25.56° C | 41% | 1011 hPa | 0 mm | - | 86 W/m² | - |
| 1776899247 | 25.56° C | 41% | 1011 hPa | 0 mm | - | 97 W/m² | - |
| 1776898942 | 25.56° C | 40% | 1011.2 hPa | 0 mm | - | 108 W/m² | - |
| 1776898638 | 26.11° C | 41% | 1010.9 hPa | 0 mm | - | 121 W/m² | - |
| 1776898335 | 26.11° C | 39% | 1010.9 hPa | 0 mm | - | 133 W/m² | - |
| 1776898033 | 26.11° C | 40% | 1011.1 hPa | 0 mm | - | 145 W/m² | - |
| 1776897730 | 26.11° C | 42% | 1011 hPa | 0 mm | - | 159 W/m² | - |
| 1776897429 | 26.11° C | 39% | 1011.1 hPa | 0 mm | - | 171 W/m² | - |
* Rain latest hour (hover to see other rain measurements)
** Current wind speed in m/s (hover to see current wind gust speed)